Cosmos 1634 Rocket - Orbit

View from above orbital plane
View from above orbital plane
View from above satellite
View from above satellite

Ground track
Ground track

The orbit data is extracted from the following two-line orbital elements,

1 15598U 85022B   13137.83598731  .00000025  00000-0  99299-5 0  4214
2 15598 082.9355 135.5262 0021012 322.4183 113.1185 13.76450318415306
Epoch (UTC): 17 May 2013 20:03:49
Eccentricity: 0.0021012
inclination: 82.9355°
perigee height: 961 km
apogee height: 992 km
right ascension of ascending node: 135.5262°
argument of perigee: 322.4183°
revolutions per day: 13.76450318
mean anomaly at epoch: 113.1185°
orbit number at epoch: 41530

The dashed part of the orbit path shows where the satellite is in the earth's shadow,  

Developed and maintained by Chris Peat, Heavens-Above GmbH. Please read the updated FAQ before sending e-mail. Imprint. DLR